Oceana NAS, VA

3:31 PM EST on November 18, 2017 (GMT -0500)
Oceana Naval Air Station

Weather History for KNTU - June, 2013

Change the Weather History Date:

Thursday, June 27, 2013

  Actual Average Record
Temperature  
Mean Temperature 81 °F -  
Max Temperature 91 °F 82 °F 97 °F (2010)
Min Temperature 71 °F 67 °F 60 °F (2012)
Cooling Degree Days 16    
Growing Degree Days 31 (Base 50)    
Moisture  
Dew Point 72 °F    
Average Humidity 76    
Maximum Humidity 96    
Minimum Humidity 55    
Precipitation  
Precipitation 0.00 in - - ()
Sea Level Pressure  
Sea Level Pressure 29.79 in    
Wind  
Wind Speed 10 mph (SSW)    
Max Wind Speed 21 mph    
Max Gust Speed 29 mph    
Visibility 10 miles    
Events Rain    
Averages and records for this station are not official NWS values.
T = Trace of Precipitation, MM = Missing Value Source: NWS Daily Summary

Daily Weather History Graph

Daily Weather History Graph

Search for Another Location

Airport or City:

Trip Planner

Search our weather history database for the weather conditions in past years. The results will help you decide how hot, cold, wet, or windy it might be!

Date:

Astronomy

Jun. 27, 2013 Rise Set
Actual Time 5:47 AM EDT 8:27 PM EDT
Civil Twilight 5:16 AM EDT 8:57 PM EDT
Nautical Twilight 4:38 AM EDT 9:36 PM EDT
Astronomical Twilight 3:55 AM EDT 10:19 PM EDT
Moon 11:31 PM EDT (6/27) 10:37 AM EDT (6/27)
Length of Visible Light 15h 41m
Length of Day
14h 40m
Waning Gibbous, 76% of the Moon is Illuminated
Jun 27
Waning Gibbous
Jun 30
Last Quarter
Jul 8
New
Jul 15
First Quarter
Jul 22
Full

Hourly Weather History & Observations

Time (EDT) Temp. Heat Index Dew Point Humidity Pressure Visibility Wind Dir Wind Speed Gust Speed Precip Events Conditions
12:56 AM 73.9 °F - 69.1 °F 85% 29.88 in 10.0 mi SW 9.2 mph - N/A   Scattered Clouds
1:56 AM 72.0 °F - 69.1 °F 91% 29.87 in 10.0 mi Calm Calm - N/A   Partly Cloudy
2:56 AM 72.0 °F - 70.0 °F 93% 29.88 in 10.0 mi SW 5.8 mph - N/A   Scattered Clouds
3:56 AM 72.0 °F - 70.0 °F 93% 29.88 in 10.0 mi SW 6.9 mph - N/A   Mostly Cloudy
4:56 AM 72.0 °F - 70.0 °F 93% 29.88 in 10.0 mi SSW 6.9 mph - N/A   Overcast
5:56 AM 71.1 °F - 70.0 °F 96% 29.87 in 10.0 mi SSW 5.8 mph - N/A   Scattered Clouds
6:56 AM 72.0 °F - 70.0 °F 93% 29.86 in 10.0 mi SSW 5.8 mph - N/A   Mostly Cloudy
7:56 AM 75.0 °F - 70.0 °F 84% 29.87 in 10.0 mi SW 9.2 mph - N/A   Mostly Cloudy
8:56 AM 80.1 °F 83.2 °F 70.0 °F 71% 29.84 in 10.0 mi SSW 10.4 mph - N/A   Mostly Cloudy
9:56 AM 82.0 °F 87.4 °F 73.0 °F 74% 29.84 in 10.0 mi SW 15.0 mph - N/A   Mostly Cloudy
10:56 AM 82.0 °F 87.9 °F 73.9 °F 76% 29.82 in 10.0 mi SSW 10.4 mph - N/A   Mostly Cloudy
11:56 AM 86.0 °F 95.1 °F 75.0 °F 70% 29.80 in 10.0 mi SSW 10.4 mph - N/A   Overcast
12:56 PM 89.1 °F 98.0 °F 73.9 °F 61% 29.78 in 10.0 mi SSW 17.3 mph 23.0 mph N/A   Mostly Cloudy
1:56 PM 90.0 °F 99.0 °F 73.9 °F 59% 29.77 in 10.0 mi SW 20.7 mph 28.8 mph N/A   Mostly Cloudy
2:56 PM 91.0 °F 100.4 °F 73.9 °F 57% 29.74 in 10.0 mi SSW 17.3 mph 27.6 mph N/A   Mostly Cloudy
3:56 PM 91.0 °F 99.3 °F 73.0 °F 55% 29.72 in 10.0 mi SW 18.4 mph 25.3 mph N/A   Mostly Cloudy
4:56 PM 91.0 °F 99.3 °F 73.0 °F 55% 29.71 in 10.0 mi SW 16.1 mph - N/A   Mostly Cloudy
5:56 PM 81.0 °F 84.9 °F 71.1 °F 72% 29.73 in 10.0 mi South 12.7 mph 23.0 mph 0.00 in Rain Light Rain
6:11 PM 82.4 °F 87.2 °F 71.6 °F 70% 29.72 in 10.0 mi SSW 15.0 mph - 0.00 in   Mostly Cloudy
6:56 PM 82.0 °F 85.9 °F 70.0 °F 67% 29.71 in 10.0 mi SSW 15.0 mph 24.2 mph 0.00 in   Mostly Cloudy
7:56 PM 81.0 °F 84.4 °F 70.0 °F 69% 29.71 in 10.0 mi SW 17.3 mph 25.3 mph N/A   Mostly Cloudy
8:24 PM 80.6 °F 84.6 °F 71.6 °F 74% 29.71 in 10.0 mi SSW 12.7 mph - 0.00 in Rain Light Rain
8:39 PM 80.6 °F 84.6 °F 71.6 °F 74% 29.72 in 10.0 mi SW 11.5 mph - 0.00 in   Mostly Cloudy
8:56 PM 80.1 °F 83.8 °F 72.0 °F 76% 29.73 in 10.0 mi SSW 10.4 mph - 0.00 in   Mostly Cloudy
9:56 PM 79.0 °F - 73.0 °F 82% 29.72 in 10.0 mi SSW 13.8 mph 20.7 mph N/A   Mostly Cloudy
10:56 PM 78.1 °F - 73.9 °F 87% 29.73 in 10.0 mi SSW 11.5 mph - N/A   Mostly Cloudy
11:56 PM 78.1 °F - 73.0 °F 84% 29.71 in 10.0 mi SSW 12.7 mph - N/A   Mostly Cloudy